Location: *
(28.3744°N, 81.5492°W)
Time: 04:07:31
(UTC+00:00)

USA 229 DEB - Pass Details

Date: 15 June 2025
Orbit: 852 x 1359 km, 63.4° (Epoch: 26 June)

Event Time Altitude Azimuth Distance (km) Brightness Sun altitude
Rises 07:26:56 0° 335° (NNW) 4,106 7.2 -30.7°
Reaches altitude 10° 07:29:38 10° 338° (NNW) 3,202 6.6 -30.4°
Maximum altitude 07:37:28 66° 61° (ENE) 1,421 4.4 -29.5°
Drops below altitude 10° 07:45:48 10° 142° (SE) 3,402 6.2 -28.4°
Sets 07:48:44 0° 145° (SE) 4,376 6.7 -28.0°
